This is the latest recevied weather packets stored in our database for station/object VU3ZAG-WX. If no packets are shown the sender has not sent any weather packets the latest 10 day(s).
| Time | Temp. | Humidity | Pressure | Rain* | Wind** | Luminosity | Snow |
|---|---|---|---|---|---|---|---|
| 1777527140 | 36.67° C | 51% | 1010.5 hPa | - | - | - | - |
| 1777526534 | 36.11° C | 54% | 1010.6 hPa | - | - | - | - |
| 1777525928 | 35.56° C | 55% | 1010.7 hPa | - | - | - | - |
| 1777525322 | 35.56° C | 58% | 1010.8 hPa | - | - | - | - |
| 1777524716 | 35.56° C | 58% | 1010.8 hPa | - | - | - | - |
| 1777524110 | 35.56° C | 60% | 1010.9 hPa | - | - | - | - |
| 1777523505 | 35.56° C | 61% | 1010.9 hPa | - | - | - | - |
| 1777522899 | 36.11° C | 61% | 1010.9 hPa | - | - | - | - |
| 1777522293 | 37.22° C | 50% | 1010.8 hPa | - | - | - | - |
| 1777521688 | 36.67° C | 48% | 1010.7 hPa | - | - | - | - |
| 1777521082 | 35.56° C | 53% | 1010.6 hPa | - | - | - | - |
| 1777520476 | 35.56° C | 55% | 1010.6 hPa | - | - | - | - |
| 1777519870 | 35° C | 57% | 1010.5 hPa | - | - | - | - |
| 1777519264 | 35° C | 55% | 1010.4 hPa | - | - | - | - |
| 1777518658 | 34.44° C | 59% | 1010.3 hPa | - | - | - | - |
| 1777518052 | 34.44° C | 57% | 1010.2 hPa | - | - | - | - |
| 1777517446 | 34.44° C | 56% | 1010.1 hPa | - | - | - | - |
| 1777516840 | 33.89° C | 57% | 1010 hPa | - | - | - | - |
| 1777516235 | 33.33° C | 59% | 1009.9 hPa | - | - | - | - |
| 1777515629 | 32.78° C | 61% | 1009.8 hPa | - | - | - | - |
| 1777515023 | 32.22° C | 64% | 1009.7 hPa | - | - | - | - |
| 1777514417 | 32.22° C | 64% | 1009.5 hPa | - | - | - | - |
| 1777513811 | 32.22° C | 64% | 1009.4 hPa | - | - | - | - |
| 1777513206 | 32.22° C | 63% | 1009.3 hPa | - | - | - | - |
| 1777512600 | 32.22° C | 65% | 1009.2 hPa | - | - | - | - |
* Rain since midnight (hover to see other rain measurements)
** Current wind speed in m/s (hover to see current wind gust speed)